Wind_Gust
11 12 13 13 12 12 12 14 13 14 14 15 15 15 15 14 15 15 14 15 15 14 15 16 15 15 15 14 14 15 15 14 15 16 16 17 17 16 18 18 17 18
10 11 12 12 12 11 11 10 12 13 13 12 13 15 14 15 15 14 14 15 16 16 15 16 15 15 14 14 14 15 15 15 16 16 16 17 17 17 17 16 17 17
11 11 11 11 11 10 10 9 9 11 12 13 12 13 14 13 14 13 13 14 15 15 15 15 15 14 13 13 14 15 15 16 15 16 17 17 16 17 17 18 17 17
10 9 10 10 10 11 10 11 11 12 12 13 13 13 13 13 13 13 13 13 14 15 14 15 15 13 13 13 14 15 15 16 15 15 17 17 16 17 17 17 18 19
9 10 9 9 9 10 10 12 13 13 13 12 12 13 13 13 13 14 13 14 13 14 15 15 14 13 13 14 15 15 16 16 15 16 17 17 16 16 16 17 18 18
8 9 10 11 10 10 11 12 13 13 13 12 12 13 13 14 15 15 15 16 16 16 17 16 15 14 14 15 15 15 16 16 16 17 18 17 17 17 17 17 17 18
8 9 9 9 10 10 10 11 11 11 11 12 12 13 13 14 14 15 16 15 17 17 17 17 16 15 15 15 16 17 17 16 17 18 19 18 17 17 17 16 17 19
9 9 10 10 10 11 11 11 11 11 11 12 12 12 13 14 14 13 13 14 15 16 15 16 16 16 15 16 17 17 17 16 17 18 18 18 17 18 17 17 16 18
10 11 11 10 10 11 12 12 12 12 13 13 13 13 12 13 13 14 15 15 16 15 15 15 16 16 14 15 16 17 18 17 16 17 17 18 19 20 21 19 19 18
11 11 11 11 12 12 13 14 13 14 14 14 15 14 16 14 14 17 17 16 17 17 18 18 17 17 17 16 18 17 18 19 19 18 18 19 20 21 22 23 23 24
12 12 12 11 12 13 14 15 14 14 14 16 16 17 17 17 17 17 18 18 18 19 20 20 20 21 22 21 20 18 19 20 20 20 20 20 21 22 19 24 24 25
12 12 13 13 13 14 15 16 16 16 16 16 17 18 18 19 19 20 19 21 21 22 23 23 23 22 23 23 23 22 22 22 22 22 22 24 24 25 26 26 26 27
14 14 13 13 13 14 15 17 17 17 18 19 19 19 20 21 21 22 20 21 23 23 24 25 25 25 24 23 23 24 24 24 24 25 24 26 26 27 28 29 29 28
14 14 14 14 14 15 16 17 18 18 18 18 19 20 21 23 24 24 22 22 24 24 25 25 25 26 24 25 26 26 26 25 25 25 26 28 28 29 29 31 31 30
14 14 14 15 16 17 17 18 19 19 19 20 19 20 20 22 23 25 26 27 27 27 27 26 26 25 24 24 26 27 27 27 26 27 28 28 28 29 29 31 32 32
16 14 16 16 17 18 19 19 20 20 20 20 22 23 24 24 25 24 25 26 27 27 26 25 25 23 18 17 17 25 28 28 27 27 27 27 28 29 29 28 29 29
16 17 17 18 18 19 19 21 23 23 21 23 23 23 23 22 22 24 24 24 26 26 26 25 24 24 17 17 16 16 19 23 25 26 25 27 27 28 29 30 29 31
17 17 18 19 19 22 24 24 23 23 24 23 23 22 21 21 21 22 23 23 24 24 25 25 24 16 19 18 17 17 15 21 23 25 26 26 26 27 28 28 30 31
18 18 19 21 22 23 22 22 23 23 23 22 22 20 19 20 21 21 23 23 24 25 25 25 24 15 17 18 17 18 18 18 24 25 26 26 26 28 28 30 30 31
18 20 21 22 22 22 22 22 22 22 20 19 19 18 19 20 20 21 22 23 23 24 25 24 24 17 18 18 19 19 19 17 24 26 26 27 28 29 29 29 30 31
20 21 21 21 22 21 20 21 21 20 20 19 18 19 20 20 20 21 21 22 24 23 24 24 23 17 18 20 20 20 20 18 27 26 26 26 27 26 29 30 29 32
19 19 19 20 21 21 20 21 20 19 20 18 17 18 18 19 19 21 22 23 23 23 23 23 23 18 20 20 20 19 19 26 27 28 29 29 29 29 29 30 30 31
18 19 19 19 19 19 20 19 19 20 19 17 18 20 21 21 22 22 24 24 23 23 23 24 25 20 19 20 19 21 20 30 28 29 29 29 30 30 31 30 29 30
17 17 18 18 18 19 19 18 18 17 17 18 20 22 23 23 23 24 23 23 23 23 23 25 25 21 19 20 20 21 20 30 29 30 30 30 32 31 33 34 32 24
15 16 16 17 17 17 17 18 18 18 19 20 21 22 23 23 24 24 24 23 22 23 18 25 25 22 19 20 20 20 27 30 31 31 31 31 34 34 33 35 35 27
13 14 14 15 17 16 17 18 18 19 20 21 21 23 24 24 23 24 24 24 23 23 24 23 25 25 23 22 21 20 22 33 30 32 33 34 34 36 36 33 35 36
Wind_Speed
4 5 5 5 5 4 5 6 5 5 5 5 5 6 6 6 6 7 6 7 7 6 7 7 7 7 6 6 6 7 6 6 7 7 8 8 8 8 8 9 9 8
4 5 5 5 4 4 4 4 5 5 5 5 5 6 5 5 6 6 6 6 6 6 6 6 6 6 6 5 6 6 6 6 7 6 7 9 8 8 9 9 9 8
4 5 5 5 4 4 4 3 3 4 4 5 5 5 4 5 5 5 5 5 5 5 5 5 5 5 5 5 6 6 6 7 7 7 7 8 7 8 8 9 8 9
3 3 4 4 4 5 4 4 4 4 4 4 5 4 4 4 4 4 4 4 4 4 4 4 5 4 5 5 6 6 7 7 6 7 8 7 7 8 8 8 8 9
2 3 3 3 3 3 3 4 4 4 4 4 4 4 4 4 4 4 4 4 3 4 4 4 4 4 5 5 6 5 6 6 6 7 8 8 7 7 7 8 9 9
1 3 3 4 4 4 4 4 5 5 5 5 4 4 4 4 4 5 5 5 4 4 4 4 5 4 5 6 6 5 6 6 6 8 8 8 7 7 7 7 8 9
2 3 3 3 3 4 4 4 4 4 4 4 4 4 5 5 5 5 5 5 6 5 5 5 5 5 5 5 6 6 6 6 7 8 8 7 7 8 7 7 7 9
3 3 4 3 3 4 4 4 4 4 5 5 5 4 4 5 5 4 5 6 5 6 5 5 5 5 5 5 6 7 7 5 6 8 8 8 8 8 8 7 7 9
4 4 4 4 4 4 5 5 5 5 5 6 6 5 5 5 6 6 6 7 7 7 7 6 7 6 5 6 6 7 8 7 7 8 8 9 10 10 10 9 10 9
5 4 5 5 5 4 5 6 6 6 6 6 7 6 7 6 7 8 8 8 8 8 9 9 9 8 8 8 9 8 9 9 9 9 9 9 10 11 12 12 13 13
5 5 5 5 5 5 6 7 7 6 6 7 7 8 8 8 8 8 9 9 8 10 10 10 10 11 11 11 10 9 10 10 10 10 10 11 11 11 13 13 13 14
5 6 7 6 6 6 6 7 7 7 8 8 8 9 9 9 10 9 9 10 10 11 12 12 12 11 12 12 12 12 11 11 11 12 12 13 13 14 14 14 14 15
7 7 6 6 6 6 7 7 8 8 9 9 9 10 10 10 11 11 10 11 12 12 13 13 14 13 13 12 12 13 13 13 13 13 14 14 15 15 16 16 16 15
6 6 7 7 7 7 8 8 9 9 9 9 9 10 11 12 13 13 12 11 12 13 13 13 13 14 13 13 14 14 14 14 14 14 14 15 17 16 16 17 17 17
6 6 6 7 8 8 9 9 9 10 10 10 10 10 9 11 12 14 14 15 14 14 15 14 13 12 11 12 14 15 15 15 15 15 15 15 15 16 16 17 18 18
6 6 7 7 8 9 9 10 10 10 10 10 12 12 13 13 13 13 13 14 14 14 13 12 11 10 11 12 12 12 15 14 14 14 15 15 15 15 16 16 16 17
6 6 7 9 9 9 10 11 12 12 11 12 12 12 12 12 11 13 12 12 13 12 12 10 9 9 11 12 13 14 11 12 13 13 14 14 14 15 15 16 16 17
7 7 8 9 10 11 13 13 12 12 13 13 12 12 11 10 11 11 11 10 9 10 11 10 10 10 10 11 12 13 11 11 12 12 12 13 13 14 14 14 16 16
7 8 9 10 12 12 11 11 12 12 12 11 11 10 9 9 10 10 9 9 10 11 11 11 11 10 11 13 14 14 14 12 11 13 13 13 14 15 15 15 15 15
8 9 11 11 12 12 11 11 11 10 9 9 8 9 8 9 9 9 9 9 10 11 11 12 13 12 12 14 15 15 16 13 12 14 14 14 15 15 15 16 16 16
10 11 11 11 11 11 10 10 9 9 9 8 8 8 8 8 9 9 10 10 11 12 12 12 11 12 12 14 14 15 16 15 14 13 13 13 14 14 16 16 16 16
9 10 10 9 9 9 9 9 9 9 9 7 8 8 8 9 9 10 12 12 12 12 12 12 11 13 12 13 14 14 16 13 13 14 14 15 15 15 16 15 16 17
8 8 8 8 9 9 10 10 9 9 8 7 9 9 10 11 11 11 12 12 13 12 12 12 13 12 11 12 12 14 15 14 14 13 14 15 15 15 15 16 15 17
6 7 8 8 9 9 9 8 8 8 8 8 10 11 11 11 11 12 11 11 12 12 11 12 12 12 10 9 11 12 14 14 13 14 15 15 16 17 17 17 19 18
6 7 7 8 8 8 8 9 9 8 9 9 10 11 11 11 11 11 11 11 11 12 12 13 12 12 12 11 11 14 16 15 14 14 15 15 16 17 17 16 18 18
5 6 6 7 8 8 8 9 8 9 10 10 10 10 11 11 11 11 12 11 12 12 11 12 13 13 14 12 14 16 18 16 14 15 16 17 17 17 17 16 17 18
Wind_Direction
6 358 355 0 7 9 5 2 4 3 9 3 5 359 357 358 350 343 351 344 343 346 350 342 341 338 335 343 350 342 342 345 331 329 332 326 321 323 318 323 323 315
11 6 359 360 2 8 359 355 356 357 6 6 9 359 356 353 348 344 349 344 343 355 348 345 345 344 338 350 348 336 338 336 329 341 328 323 324 320 319 320 313 318
12 6 3 0 358 356 350 343 348 356 3 6 3 360 355 349 344 348 343 347 342 346 348 344 348 346 343 347 339 333 334 330 330 338 326 325 323 317 321 319 315 317
11 2 350 354 354 350 347 345 0 358 4 4 2 357 352 348 333 343 341 344 341 335 344 343 342 344 338 333 332 328 328 320 329 329 322 323 322 324 320 316 314 315
349 340 336 337 351 343 335 344 355 360 2 355 350 342 348 345 332 350 347 346 338 333 336 337 332 335 325 329 328 323 324 319 321 324 321 321 323 325 320 317 316 313
302 314 328 342 350 345 342 348 352 354 357 345 343 333 342 336 335 342 348 341 341 340 334 338 331 327 324 323 320 319 322 321 323 315 319 319 324 324 318 315 315 315
304 282 292 300 323 331 320 333 339 338 342 332 329 332 334 333 331 337 332 329 327 330 330 326 328 318 322 314 313 314 316 316 312 315 315 320 317 313 311 312 315 313
263 277 277 304 318 319 319 320 323 329 324 321 322 324 324 325 321 326 302 304 303 299 302 304 302 311 301 297 294 301 302 301 306 304 307 306 308 302 303 303 307 303
259 271 279 278 293 304 310 314 313 312 311 310 311 319 312 310 312 299 295 291 291 289 288 288 285 289 285 274 276 281 289 292 288 295 296 295 296 300 300 302 297 300
259 271 278 289 299 308 309 307 305 300 302 299 305 306 303 300 295 293 291 291 287 291 294 294 295 294 287 282 283 287 285 287 291 289 290 291 293 297 304 303 302 301
257 271 282 290 292 299 298 300 299 298 296 297 295 292 296 297 292 289 286 286 292 298 304 302 302 301 301 298 296 293 292 289 285 285 287 287 288 293 300 300 300 298
266 282 293 296 299 300 299 297 297 295 297 291 291 291 291 288 290 289 290 293 296 307 308 306 302 299 297 297 298 296 291 286 281 280 280 290 293 296 299 300 300 298
300 306 305 303 301 298 296 293 293 295 291 296 300 296 292 291 292 298 298 298 301 301 300 302 303 300 295 290 289 289 288 286 285 283 283 289 291 291 294 297 298 298
302 302 304 306 301 295 292 289 288 287 286 285 286 287 292 296 305 309 305 296 297 297 297 296 294 292 291 288 291 294 290 287 287 285 281 282 287 286 287 289 291 292
294 297 301 302 292 292 290 287 286 286 285 289 290 291 291 296 299 303 304 302 300 299 299 298 296 294 292 291 298 296 296 292 288 285 285 284 281 282 282 284 288 290
302 300 296 300 294 291 296 300 302 303 301 294 297 302 305 305 305 302 300 300 301 303 303 303 300 295 294 294 289 293 298 297 293 289 286 283 282 281 282 280 280 282
294 298 300 297 306 303 304 305 313 316 308 301 302 304 304 304 305 305 305 306 307 307 308 305 302 301 311 307 298 290 286 290 290 287 283 281 279 279 279 281 279 282
306 305 302 306 307 313 316 319 315 310 308 308 309 310 310 311 306 306 310 311 311 311 311 311 308 314 317 305 295 291 287 287 293 287 283 281 278 277 279 281 284 285
300 300 308 314 320 319 317 309 309 308 313 319 317 316 310 306 311 311 312 317 316 317 316 313 313 317 315 305 302 301 299 296 295 290 284 279 277 277 277 279 283 286
308 318 319 319 316 313 312 313 316 324 326 320 316 313 312 312 313 314 315 318 318 315 314 315 311 318 316 311 307 307 304 302 296 289 280 275 274 274 275 277 279 284
323 322 318 316 317 321 323 323 329 330 325 323 321 319 318 320 317 317 319 314 315 317 317 316 315 328 316 308 308 309 313 305 298 291 284 279 277 276 282 283 284 287
319 317 321 329 333 333 328 331 334 329 326 328 326 320 320 316 315 318 318 318 319 322 321 323 325 327 320 318 319 324 320 313 317 307 298 291 286 287 288 287 288 290
331 337 345 342 338 330 333 336 332 330 330 334 325 324 320 319 321 320 323 322 324 324 325 327 323 328 338 332 337 340 335 331 319 311 304 299 294 292 292 291 291 292
360 357 351 344 335 338 340 335 332 330 330 333 326 324 321 323 325 325 326 326 325 324 327 322 318 331 341 352 352 353 343 336 329 321 315 307 302 299 297 297 293 294
10 4 354 345 342 346 341 335 333 332 330 330 327 323 326 329 332 327 328 323 324 322 320 318 323 332 353 7 6 13 8 348 337 329 324 325 322 317 312 304 299 294
16 10 2 352 347 345 339 334 331 332 335 333 332 331 335 332 330 328 324 325 326 325 326 329 331 335 343 5 33 27 16 358 345 339 333 331 327 318 311 305 302 297